Regional Weather Roundup
Issued by NWS

Home | Current Version | Previous Version | Graphics & Text | Print | Product List | Glossary On
Versions: 1 2 3 4 5 6 7 8 9 10 11 12 13 14 15 16 17 18 19 20 21 22 23 24 25 26 27 28 29 30 31 32 33 34 35 36 37 38 39 40 41 42 43 44 45 46 47 48 49 50
000
ASUS45 KPSR 021500
RWRAZ

ARIZONA HOURLY REGIONAL WEATHER ROUNDUP
NATIONAL WEATHER SERVICE PHOENIX AZ
800 AM MST SUN AUG 02 2015

NOTE: FAIR INDICATES FEW OR NO CLOUDS BELOW 12,000 FEET WITH NO
SIGNIFICANT WEATHER AND/OR OBSTRUCTIONS TO VISIBILITY.

AZZ001>003-036-021600-
NORTHWEST ARIZONA

CITY           SKY/WX    TMP DP  RH WIND       PRES   REMARKS
KINGMAN        SUNNY     79  55  43 CALM      30.03R
$$

AZZ004>008-015-016-018-021600-
NORTH CENTRAL ARIZONA

CITY           SKY/WX    TMP DP  RH WIND       PRES   REMARKS
GRAND CANYON   PTSUNNY   67  55  65 MISG      30.24R
WILLIAMS       SUNNY     70  55  60 SE6       30.31R
PRESCOTT       SUNNY     73  57  57 CALM      30.13R
FLAGSTAFF      NOT AVBL
PAYSON         SUNNY     70  55  60 E6        30.17S
PAGE           CLOUDY    74  61  63 N6        30.10R
$$

AZZ009>014-017-021600-
NORTHEAST ARIZONA

CITY           SKY/WX    TMP DP  RH WIND       PRES   REMARKS
WINSLOW        NOT AVBL
SAINT JOHNS    PTSUNNY   69  56  62 NE5       30.20R
SHOW LOW       PTSUNNY   63  54  72 S10       30.24S
$$

AZZ023-021600-
GREATER PHOENIX AREA

CITY           SKY/WX    TMP DP  RH WIND       PRES   REMARKS
PHOENIX        MOSUNNY   89  65  44 SE7       29.84R
GLENDALE       MOSUNNY   90  66  45 CALM      29.86R
DEER VALLEY    SUNNY     90  61  37 CALM      29.86R
SCOTTSDALE     SUNNY     91  61  36 SE6       29.88R
MESA-GATEWAY   MOSUNNY   86  66  51 SE9       29.89R
CHANDLER       SUNNY     90  64  43 CALM      29.86R
$$

AZZ027-028-021600-
SOUTHWEST MARICOPA COUNTY AND PINAL COUNTY

CITY           SKY/WX    TMP DP  RH WIND       PRES   REMARKS
CASA GRANDE    SUNNY     88  63  42 CALM      29.87R
GILA BEND      SUNNY     92  56  29 NW3       29.83R
$$

AZZ503-504-507>509-021600-
SOUTHEAST ARIZONA

CITY           SKY/WX    TMP DP  RH WIND       PRES   REMARKS
TUCSON         SUNNY     81  64  56 SE8       29.99S
DAVIS-MONTHAN  SUNNY     82  62  50 SE8       29.98S
RYAN FIELD     SUNNY     82  66  57 E7        29.98R
NOGALES        SUNNY     76  63  64 S5        30.09R
SIERRA VISTA   SUNNY     76  59  55 SE3       30.15R
SAFFORD        CLOUDY    79  64  60 W3        30.03R
$$

AZZ020-021-025-026-031-021600-
SOUTHWEST ARIZONA

CITY           SKY/WX    TMP DP  RH WIND       PRES   REMARKS
YUMA           NOT AVBL
$$

CAZ031-033-041-043-047-048-061-021600-
SOUTHERN CALIFORNIA

CITY           SKY/WX    TMP DP  RH WIND       PRES   REMARKS
DOWNTOWN L.A.  CLOUDY    70  64  81 CALM      29.91R
L.A. AIRPORT   CLOUDY    69  64  84 CALM      29.92R
SAN DIEGO      CLOUDY    70  63  78 W6        29.93R
BURBANK        SUNNY     70  62  76 VRB3      29.92R
ONTARIO        MOSUNNY   69  62  78 CALM      29.92R
RIVERSIDE      SUNNY     70  63  78 CALM      29.92S
PALM SPRINGS   SUNNY     87  59  38 CALM      29.82R
EL CENTRO NAS  SUNNY     89  51  27 S6        29.78R
IMPERIAL       SUNNY     89  50  26 CALM      29.75R
BLYTHE         SUNNY     90  58  33 CALM      29.80R
$$

NVZ020-UTZ003-021600-
SOUTHERN NEVADA-UTAH

CITY           SKY/WX    TMP DP  RH WIND       PRES   REMARKS
LAS VEGAS      NOT AVBL
SALT LAKE CITY PTSUNNY   79  41  25 S9        30.00S
$$

NMZ009-TXZ055-021600-
NEW MEXICO-WEST TEXAS

CITY           SKY/WX    TMP DP  RH WIND       PRES   REMARKS
ALBUQUERQUE    MOSUNNY   70  58  65 W5        30.20R
EL PASO        PTSUNNY   80  57  45 E5        30.07R
$$


........................KEY........................
SKY/WX - SKY CONDITION/WEATHER
TMP    - TEMPERATURE IN FAHRENHEIT
DP     - DEW POINT IN FAHRENHEIT
RH     - RELATIVE HUMIDITY IN PERCENT
WIND   - DIRECTION AND SPEED IN MILES PER HOUR (MPH)
VRB    - VARIABLE WIND DIRECTION
PRES   - MEAN SEA LEVEL PRESSURE IN INCHES OF MERCURY
         F - FALLING PRESSURE   R - RISING PRESSURE
         S - STEADY PRESSURE
VSB    - VISIBILITY IN MILES
HX     - HEAT INDEX IN FAHRENHEIT
WCI    - WIND CHILL INDEX IN FAHRENHEIT
TC     - TEMPERATURE IN CELSIUS WHICH IS ALSO KNOWN AS
         TEMPERATURE IN CENTIGRADE
AFB    - AIR FORCE BASE
         LUKE AFB IS LUKE AIR FORCE BASE
         DAVIS-MONTHAN IS DAVIS-MONTHAN AIR FORCE BASE
NAS    - NAVAL AIR STATION
         EL CENTRO NAS IS EL CENTRO NAVAL AIR STATION
N/A    - NOT AVAILABLE




USA.gov is the U.S. government's official web portal to all federal, state and local government web resources and services.